Terug naar catalogus

STARLINK-36465

ActiefCommunicatieVLEO
NORAD 67423·PAYLOAD·🇺🇸 United States

Gelanceerd Jan 12, 2026 vanaf Cape Canaveral Space Force Station

Loading…

Volgende Passages (komende 24 uur)

TLE

VersSource: CelesTrak SupGP

Epoch: Sep 15, 2026, 04:01 UTC

1 67423C 26005V   26258.16784722 -.00140460  00000+0 -50857-2 0  2586
2 67423  43.0009 248.1360 0001512 268.3106  38.3226 15.27658926    15

Volg STARLINK-36465 in realtime met AllMySat

Download on the App Store